sat.trackr.live / text

‹ back to catalog

STARLINK-34400

NORAD 64463 · 2025-130AB

PAYLOAD ACTIVE UNKNOWN

§ Identity

Operator
Country
US
Launch date
2025-06-18
Launch site
AFETR
Launch vehicle
Mass (kg)
RCS (m²)

Purposes: comms

External: N2YO · Heavens-Above · Gunter

§ Orbital elements

Epoch: 2026-09-20T23:34:50.946240Z

Period
94.01 min
Inclination
53.1590°
Eccentricity
0.0001475
Mean motion
15.31710498 rev/d
Perigee alt
469.7 km
Apogee alt
471.7 km
Semi-major
6,848.8 km
B*
4.4060e-4
RAAN
262.8128°
Arg perigee
74.3317°
Mean anomaly
285.7847°
Rev number
7,058

§ Raw data

STARLINK-344001 64463U 25130AB  26263.98253410  .00013336  00000+0  44060-3 0  99972 64463  53.1590 262.8128 0001475  74.3317 285.7847 15.31710498 70589

JSON: /api/v1/satellites/64463 · /tle

For live sub-satellite position, see the globe view (requires WebGL).

§ Visibility from observer

Set your observer location to see the next 7 days of passes ≥ 10°. The values pass through the URL so the page stays shareable.

No JS? Fill the form by hand. The geolocation button needs JavaScript.